Location: *
(47.7167°N, 1.7333°W)
Time: 17:12:57
(UTC+00:00)

ATLAS 5 CENTAUR R/B - Pass Details

Date: 09 April 2020
Orbit: 543 x 1116 km, 63.4° (Epoch: 01 May)

Event Time Altitude Azimuth Distance (km) Brightness Sun altitude
Rises 21:43:18 0° 266° (W) 2,809 5.4 -25.7°
Reaches altitude 10° 21:45:51 10° 282° (WNW) 1,974 4.8 -26.0°
Maximum altitude 21:49:21 22° 334° (NNW) 1,431 4.1 -26.4°
Drops below altitude 10° 21:53:16 10° 26° (NNE) 2,218 4.7 -26.8°
Sets 21:56:19 0° 41° (NE) 3,258 5.4 -27.1°
